Weather Roundup
Issued by NWS

Home | Current Version | Previous Version | Graphics & Text | Print | Product List | Glossary Off
Versions: 1 2 3 4 5 6 7 8 9 10 11 12 13 14 15 16 17 18 19 20 21 22 23 24 25 26 27 28 29 30 31 32 33 34 35 36 37 38 39 40 41 42 43 44 45 46 47 48 49 50

000
NZUS93 KARX 270059
HRRWXR

CURRENT HOURLY OBSERVATIONS ACROSS
MUCH OF THE UPPER MISSISSIPPI VALLEY
NATIONAL WEATHER SERVICE LA CROSSE WI
800 PM CDT SUN APR 26 2015


...SOUTHEAST MINNESOTA...


CITY           SKY/WX    TMP DP  RH WIND       PRES   REMARKS
ROCHESTER      CLEAR     52  26  36 NE7       30.08R
ROCHESTER/MAYO FAIR      58  26  28 N3        30.07S
WINONA         CLEAR     59  28  31 CALM      30.06S HAZE
AUSTIN         CLEAR     54  28  37 NE3       30.07R
ALBERT LEA     CLEAR     55  27  33 NE7       30.07R
DODGE CENTER   CLEAR     55  27  33 NE7       30.08R
PRESTON        CLEAR     52  25  34 N5        30.07R
OWATONNA       CLEAR     55  21  26 N5        30.08R
FARIBAULT      CLEAR     57  25  28 N3        30.09R
$$

...ELSEWHERE IN MINNESOTA...


CITY           SKY/WX    TMP DP  RH WIND       PRES   REMARKS
MINNEAPOLIS    PTCLDY    59  21  23 N12G21    30.09R
INTNL FALLS    CLEAR     55  10  16 CALM      30.15S
DULUTH         CLEAR     47  19  33 SE3       30.14S
RED WING       CLEAR     59  19  21 NE6       30.07R
REDWOOD FALLS  CLEAR     61  15  16 NE5       30.08R
MANKATO        PTCLDY    57  23  26 NE9       30.08R
WORTHINGTON    CLEAR     61  25  25 NE10      30.06R
FAIRMONT       CLEAR     61  25  25 NE10      30.05S
$$

...SOUTHWEST WISCONSIN...


CITY           SKY/WX    TMP DP  RH WIND       PRES   REMARKS
LA CROSSE      CLEAR     58  26  29 N8        30.04R
PRAIRIE DU CHI CLEAR     59  23  25 NW7       30.03R
BOSCOBEL       CLEAR     58  24  27 N3        30.03R
LONE ROCK      NOT AVBL
PLATTEVILLE    CLEAR     53  31  41 N6        30.02S
FORT MC COY    CLEAR     58  21  23 N7        30.04S
VIROQUA        FAIR      55  26  32 NE8       30.04R
WIS DELLS      CLEAR     57  20  24 NW7       30.01R
$$

...ELSEWHERE IN WISCONSIN...


CITY           SKY/WX    TMP DP  RH WIND       PRES   REMARKS
MILWAUKEE      PTCLDY    43  26  51 N9        30.04R
MADISON        CLEAR     54  25  32 CALM      30.00S
GREEN BAY      CLEAR     50  33  52 NE14      30.05R
EAU CLAIRE     NOT AVBL
BLACK RVR FLS  FAIR      60  19  21 NW5       30.04R
MEDFORD        CLEAR     51  27  38 N9G17     30.07R
WAUSAU         CLEAR     55  24  30 N12       30.04R
WIS RAPIDS     CLEAR     57  19  22 N8        30.03R
MARSHFIELD     CLEAR     56  24  29 N12       30.04R
RICE LAKE      CLEAR     54  22  28 N13G22    30.12R
$$

...NORTHEAST IOWA...


CITY           SKY/WX    TMP DP  RH WIND       PRES   REMARKS
DECORAH        CLEAR     57  25  28 N7        30.04R
MASON CITY     CLEAR     53  29  39 NE9       30.07R
CHARLES CITY   CLEAR     57  28  33 N9        30.05S
OELWEIN        CLEAR     55  28  35 N9        30.04S
$$

...ELSEWHERE IN IOWA...


CITY           SKY/WX    TMP DP  RH WIND       PRES   REMARKS
DES MOINES     CLEAR     59  25  27 E9        30.03R
IOWA CITY      CLEAR     54  31  41 NE7       30.04R
FORT DODGE     CLEAR     57  30  35 NE6       30.05R
$$

...NORTHERN ILLINOIS...


CITY           SKY/WX    TMP DP  RH WIND       PRES   REMARKS
CHICAGO-OHARE  PTCLDY    46  23  40 N6        30.01S
CHICAGO-MIDWAY PTCLDY    49  23  36 N7        30.01S
MOLINE         CLEAR     56  30  37 N3        30.01R
ROCKFORD       CLEAR     55  23  28 NE12      30.03R
PEORIA         CLEAR     56  33  42 N5        30.01R
$$

NOTE: "FAIR" INDICATES FEW OR NO CLOUDS BELOW 12,000 FEET WITH NO
SIGNIFICANT WEATHER AND/OR OBSTRUCTIONS TO VISIBILITY. WIND
SPEEDS ARE IN MILES-PER-HOUR.



USA.gov is the U.S. government's official web portal to all federal, state and local government web resources and services.